Radioactive Concentration measured by Seawater Radiation Monitor near Fukushima Daiichi Nuclear Power Station
Date,Time,Cs137(Bq/L),Cs134(Bq/L),Total β(Bq/L)
2017/01/21,00:00,1.0,0.17,9.6
2017/01/21,00:10,1.1,0.15,ND
2017/01/21,00:20,1.0,0.19,ND
2017/01/21,00:30,1.0,0.18,9.9
2017/01/21,00:40,1.0,0.19,10
2017/01/21,00:50,0.98,0.19,ND
2017/01/21,01:00,0.99,0.20,11
2017/01/21,01:10,1.0,0.19,13
2017/01/21,01:20,1.0,0.17,12
2017/01/21,01:30,1.0,0.17,13
2017/01/21,01:40,1.1,0.16,13
2017/01/21,01:50,1.1,0.17,15
2017/01/21,02:00,1.1,0.17,12
2017/01/21,02:10,1.1,0.16,12
2017/01/21,02:20,1.0,0.17,13
2017/01/21,02:30,1.0,0.16,10
2017/01/21,02:40,1.0,0.16,10
2017/01/21,02:50,1.0,0.16,12
2017/01/21,03:00,1.0,0.16,14
2017/01/21,03:10,1.0,0.16,14
2017/01/21,03:20,1.1,0.15,16
2017/01/21,03:30,1.0,0.15,16
2017/01/21,03:40,1.0,0.15,16
2017/01/21,03:50,1.0,0.14,14
2017/01/21,04:00,0.97,0.14,11
2017/01/21,04:10,0.97,0.13,12
2017/01/21,04:20,0.97,0.15,13
2017/01/21,04:30,0.97,0.14,13
2017/01/21,04:40,0.97,0.13,15
2017/01/21,04:50,1.1,0.090,14
2017/01/21,05:00,1.1,0.070,16
2017/01/21,05:10,0.89,0.11,15
2017/01/21,05:20,0.98,0.049,14
2017/01/21,05:30,0.84,0.092,14
2017/01/21,05:40,0.97,0.054,13
2017/01/21,05:50,0.91,0.084,13
2017/01/21,06:00,1.0,0.067,13
2017/01/21,06:10,0.93,0.10,12
2017/01/21,06:20,0.93,0.11,14
2017/01/21,06:30,0.93,0.11,12
2017/01/21,06:40,0.92,0.11,12
2017/01/21,06:50,0.99,0.078,12
2017/01/21,07:00,0.99,0.078,11
2017/01/21,07:10,1.0,0.077,9.7
2017/01/21,07:20,1.0,0.075,ND
2017/01/21,07:30,1.0,0.074,ND
2017/01/21,07:40,0.93,0.11,ND
2017/01/21,07:50,0.96,0.11,ND
2017/01/21,08:00,0.95,0.12,ND
2017/01/21,08:10,1.1,0.085,ND
2017/01/21,08:20,0.93,0.13,ND
2017/01/21,08:30,0.93,0.13,ND
2017/01/21,08:40,0.91,0.13,9.3
2017/01/21,08:50,0.87,0.14,ND
2017/01/21,09:00,0.87,0.13,9.7
2017/01/21,09:10,0.88,0.13,ND
2017/01/21,09:20,0.86,0.14,10
2017/01/21,09:30,0.86,0.14,ND
2017/01/21,09:40,0.86,0.15,ND
2017/01/21,09:50,0.89,0.14,10
2017/01/21,10:00,0.99,0.10,12
2017/01/21,10:10,0.86,0.14,14
2017/01/21,10:20,0.87,0.12,14
2017/01/21,10:30,0.88,0.12,14
2017/01/21,10:40,0.88,0.12,15
2017/01/21,10:50,0.96,0.087,14
2017/01/21,11:00,0.97,0.084,12
2017/01/21,11:10,0.96,0.079,11
2017/01/21,11:20,0.93,0.096,9.5
2017/01/21,11:30,0.92,0.097,9.5
2017/01/21,11:40,0.90,0.093,ND
2017/01/21,11:50,0.90,0.095,ND
2017/01/21,12:00,0.92,0.089,ND
2017/01/21,12:10,0.92,0.088,ND
2017/01/21,12:20,0.81,0.12,ND
2017/01/21,12:30,0.82,0.12,ND
2017/01/21,12:40,0.82,0.12,ND
2017/01/21,12:50,0.84,0.11,10
2017/01/21,13:00,0.81,0.12,10
2017/01/21,13:10,0.82,0.12,14
2017/01/21,13:20,0.85,0.12,16
2017/01/21,13:30,0.85,0.11,17
2017/01/21,13:40,0.85,0.10,14
2017/01/21,13:50,0.83,0.11,13
2017/01/21,14:00,0.85,0.10,12
2017/01/21,14:10,0.84,0.10,11
2017/01/21,14:20,0.82,0.11,11
2017/01/21,14:30,0.80,0.11,11
2017/01/21,14:40,0.79,0.11,12
2017/01/21,14:50,0.80,0.10,12
2017/01/21,15:00,0.92,0.066,14
2017/01/21,15:10,0.79,0.11,14
2017/01/21,15:20,0.91,0.069,14
2017/01/21,15:30,0.91,0.065,13
2017/01/21,15:40,0.80,0.097,13
2017/01/21,15:50,0.79,0.11,14
2017/01/21,16:00,0.77,0.12,13
2017/01/21,16:10,0.78,0.11,12
2017/01/21,16:20,0.79,0.12,9.2
2017/01/21,16:30,0.79,0.12,11
2017/01/21,16:40,0.80,0.12,11
2017/01/21,16:50,0.80,0.12,9.5
2017/01/21,17:00,0.83,0.11,9.0
2017/01/21,17:10,0.82,0.10,ND
2017/01/21,17:20,0.83,0.095,ND
2017/01/21,17:30,0.82,0.11,9.3
2017/01/21,17:40,0.95,0.072,ND
2017/01/21,17:50,0.82,0.11,ND
2017/01/21,18:00,0.79,0.12,ND
2017/01/21,18:10,0.79,0.12,ND
2017/01/21,18:20,0.79,0.12,ND
2017/01/21,18:30,0.79,0.12,ND
2017/01/21,18:40,0.77,0.12,ND
2017/01/21,18:50,0.79,0.12,ND
2017/01/21,19:00,0.81,0.11,ND
2017/01/21,19:10,0.80,0.12,ND
2017/01/21,19:20,0.80,0.11,8.8
2017/01/21,19:30,0.88,0.066,8.8
2017/01/21,19:40,0.90,0.069,ND
2017/01/21,19:50,0.89,0.066,9.5
2017/01/21,20:00,0.90,0.063,ND
2017/01/21,20:10,0.93,0.057,ND
2017/01/21,20:20,0.93,0.068,ND
2017/01/21,20:30,0.83,0.11,ND
2017/01/21,20:40,0.82,0.11,ND
2017/01/21,20:50,0.79,0.12,ND
2017/01/21,21:00,0.82,0.091,10
2017/01/21,21:10,0.81,0.089,9.9
2017/01/21,21:20,0.78,0.12,ND
2017/01/21,21:30,0.79,0.11,10
2017/01/21,21:40,0.79,0.12,ND
2017/01/21,21:50,0.83,0.11,ND
2017/01/21,22:00,0.92,0.074,ND
2017/01/21,22:10,0.90,0.089,ND
2017/01/21,22:20,0.89,0.087,ND
2017/01/21,22:30,0.88,0.096,ND
2017/01/21,22:40,0.87,0.088,ND
2017/01/21,22:50,0.77,0.12,ND
2017/01/21,23:00,0.87,0.090,ND
2017/01/21,23:10,0.89,0.068,8.8
2017/01/21,23:20,0.89,0.070,8.9
2017/01/21,23:30,0.89,0.064,10
2017/01/21,23:40,0.87,0.074,10
2017/01/21,23:50,0.85,0.082,ND
